Weather Roundup
Issued by NWS

Home | Current Version | Previous Version | Graphics & Text | Print | Product List | Glossary Off
Versions: 1 2 3 4 5 6 7 8 9 10 11 12 13 14 15 16 17 18 19 20 21 22 23 24 25 26 27 28 29 30 31 32 33 34 35 36 37 38 39 40 41 42 43 44 45 46 47 48 49 50

227
NZUS93 KARX 230359
HRRWXR

CURRENT HOURLY OBSERVATIONS ACROSS
MUCH OF THE UPPER MISSISSIPPI VALLEY
NATIONAL WEATHER SERVICE LA CROSSE WI
1100 PM CDT SUN APR 22 2018


...SOUTHEAST MINNESOTA...


CITY           SKY/WX    TMP DP  RH WIND       PRES   REMARKS
ROCHESTER      FAIR      47  33  58 E7        30.25F
ROCHESTER/MAYO FAIR      51  32  49 E5        30.26S
WINONA         FAIR      45  36  70 CALM      30.24S
AUSTIN         FAIR      43  37  81 CALM      30.24F
ALBERT LEA     FAIR      43  37  81 CALM      30.25S
DODGE CENTER   FAIR      46  34  61 E5        30.25S
PRESTON        FAIR      49  29  45 E5        30.26S
OWATONNA       FAIR      45  39  81 E3        30.25S
FARIBAULT      NOT AVBL
$$

...ELSEWHERE IN MINNESOTA...


CITY           SKY/WX    TMP DP  RH WIND       PRES   REMARKS
MINNEAPOLIS    FAIR      54  37  52 CALM      30.25S
INTNL FALLS    FAIR      47  34  60 VRB3      30.14S
DULUTH         FAIR      46  27  47 CALM      30.22F
RED WING       FAIR      41  30  65 CALM      30.25S
REDWOOD FALLS  CLEAR     45  41  86 S6        30.24F
MANKATO        FAIR      48  38  68 CALM      30.25F
WORTHINGTON    CLEAR     41  36  82 E6        30.24F
FAIRMONT       CLEAR     42  37  82 NE3       30.24S
$$

...SOUTHWEST WISCONSIN...


CITY           SKY/WX    TMP DP  RH WIND       PRES   REMARKS
LA CROSSE      FAIR      46  31  55 CALM      30.26S
PRAIRIE DU CHI FAIR      51  27  38 E6        30.24F
BOSCOBEL       FAIR      47  33  58 CALM      30.25F
LONE ROCK      NOT AVBL
PLATTEVILLE    FAIR      47  32  56 E9        30.25F
FORT MC COY    FAIR      37  27  68 CALM      30.29S
MAUSTON-NEW LI FAIR      39  32  75 CALM      30.27F
VIROQUA        FAIR      45  31  59 E8        30.25F
WIS DELLS      FAIR      41  27  58 E3        30.27F
$$

...ELSEWHERE IN WISCONSIN...


CITY           SKY/WX    TMP DP  RH WIND       PRES   REMARKS
MILWAUKEE      FAIR      43  28  55 CALM      30.28F
MADISON        FAIR      41  29  62 N5        30.26F
GREEN BAY      FAIR      41  32  70 CALM      30.31F
EAU CLAIRE     NOT AVBL
BLACK RVR FLS  FAIR      32  23  68 CALM      30.27S
MEDFORD        FAIR      44  21  40 SE5       30.27F
WAUSAU         FAIR      40  17  39 CALM      30.27F
WIS RAPIDS     FAIR      41  23  48 E5        30.29F
MARSHFIELD     FAIR      43  20  39 CALM      30.27F
RICE LAKE      FAIR      39  33  78 CALM      30.28S
$$

...NORTHEAST IOWA...


CITY           SKY/WX    TMP DP  RH WIND       PRES   REMARKS
WATERLOO       FAIR      44  35  70 E7        30.20F
DUBUQUE        FAIR      49  28  44 E9        30.23F
DECORAH        MOCLDY    50  27  40 E8        30.23F
MASON CITY     PTCLDY    43  37  79 NE5       30.24S
CHARLES CITY   FAIR      48  34  57 E8        30.23F
OELWEIN        FAIR      50  36  57 E6        30.22F
$$

...ELSEWHERE IN IOWA...


CITY           SKY/WX    TMP DP  RH WIND       PRES   REMARKS
DES MOINES     PTCLDY    57  28  33 E6        30.18F
IOWA CITY      FAIR      55  28  35 E6        30.21R
FORT DODGE     CLEAR     47  40  76 NE5       30.21S
MARSHALLTOWN   CLOUDY    49  37  63 E7        30.19F
CEDAR RAPIDS   FAIR      52  31  44 E12       30.18F
$$

...NORTHERN ILLINOIS...


CITY           SKY/WX    TMP DP  RH WIND       PRES   REMARKS
CHICAGO-OHARE  MOCLDY    46  28  49 NE12      30.23F
CHICAGO-MIDWAY MOCLDY    50  29  44 E9        30.24F
MOLINE         FAIR      55  27  34 E15       30.19S
ROCKFORD       MOCLDY    50  25  37 E14       30.26F
PEORIA         FAIR      53  30  41 NE12      30.17F
$$

NOTE: "FAIR" INDICATES FEW OR NO CLOUDS BELOW 12,000 FEET WITH NO
SIGNIFICANT WEATHER AND/OR OBSTRUCTIONS TO VISIBILITY. WIND
SPEEDS ARE IN MILES-PER-HOUR.




USA.gov is the U.S. government's official web portal to all federal, state and local government web resources and services.